Regional Weather Roundup
Issued by NWS

Home | Current Version | Previous Version | Graphics & Text | Print | Product List | Glossary On
Versions: 1 2 3 4 5 6 7 8 9 10 11 12 13 14 15 16 17 18 19 20 21 22 23 24 25 26 27 28 29 30 31 32 33 34 35 36 37 38 39 40 41 42 43 44 45 46 47 48 49 50
000
ASUS45 KABQ 300601
RWRNM
WEATHER ROUNDUP FOR NEW MEXICO
NATIONAL WEATHER SERVICE ALBUQUERQUE NM
1100 PM MST THU JAN 29 2015

NOTE: "FAIR" MEANS FEW OR NO CLOUDS BELOW 12,000 FEET AGL WITH NO
       SIGNIFICANT WEATHER OR OBSTRUCTIONS TO VISION.

      THIS PRODUCT IS RELEASED AS TWO VERSIONS.  ONE VERSION NEAR
      THE TOP OF THE HOUR CONTAINING PRELIMINARY DATA FROM ALBUQUERQUE
      AND OTHER STATIONS.  A FINAL VERSION WITH ADDITIONAL DATA IS
      ISSUED ABOUT 10 MINUTES AFTER THE HOUR.

NMZ501-503-504-510>518-300700-
NORTHWEST PLATEAU/NORTHCENTRAL MOUNTAINS

CITY           SKY/WX    TMP DP  RH WIND       PRES   REMARKS
FARMINGTON     CLOUDY    44  25  47 E9        30.31S
6HR MIN TEMP:  44; 6HR MAX TEMP:  50;

SANTA FE       CLOUDY    38  14  37 SE20G29   30.44S WCI  28
6HR MIN TEMP:  37; 6HR MAX TEMP:  43;

TAOS           CLOUDY    36  23  60 CALM      30.42F

$$
NMZ402-403-502-505>509-300700-
WESTCENTRAL MOUNTAINS/SOUTHWEST MOUNTAINS

CITY           SKY/WX    TMP DP  RH WIND       PRES   REMARKS
GALLUP         LGT RAIN  42  31  64 E10G20    30.28S
6HR MIN TEMP:  41; 6HR MAX TEMP:  50; 6HR PCP: TRACE;

SILVER CITY    LGT RAIN  41  41 100 E10       30.34F

$$
NMZ407-409-411-412-300700-
SOUTHERN DESERTS

CITY           SKY/WX    TMP DP  RH WIND       PRES   REMARKS
DEMING         LGT RAIN  44  40  85 E15       30.32S
6HR MIN TEMP:  44; 6HR MAX TEMP:  57; 6HR PCP:  0.13;

HOLLOMAN AFB   CLOUDY    49  36  62 N6        30.33S
ALAMOGORDO     CLOUDY    50  34  53 NW7       30.35S
T OR C         LGT RAIN  44  38  79 CALM      30.34S
6HR MIN TEMP:  44; 6HR MAX TEMP:  54; 6HR PCP:  0.01;


$$
NMZ519>523-300700-
CENTRAL VALLEYS/CENTRAL HIGHLANDS

CITY           SKY/WX    TMP DP  RH WIND       PRES   REMARKS
ALBUQUERQUE    CLOUDY    42  18  37 E21       30.40S
6HR MIN TEMP:  42; 6HR MAX TEMP:  48;

DOUBLE EAGLE   CLOUDY    39  18  41 E17       30.41S WCI  30
CLINES CORNERS CLOUDY    32  16  51 E15       30.42F WCI  22
6HR MIN TEMP:  31; 6HR MAX TEMP:  36;

BELEN          DRIZZLE   42  31  65 SE13G20   30.40R
6HR MIN TEMP:  42; 6HR MAX TEMP:  50;

SOCORRO        NOT AVBL

$$
NMZ524>526-539-540-300700-
SOUTHCENTRAL MOUNTAINS

CITY           SKY/WX    TMP DP  RH WIND       PRES   REMARKS
RUIDOSO        NOT AVBL

$$
NMZ527>531-300700-
NORTHEAST HIGHLANDS/NORTHEAST PLAINS

CITY           SKY/WX    TMP DP  RH WIND       PRES   REMARKS
LAS VEGAS      CLOUDY    32  21  64 SW3       30.48S
6HR MIN TEMP:  31; 6HR MAX TEMP:  37;

RATON          CLOUDY    33  26  75 SW7       30.46S WCI  27
6HR MIN TEMP:  32; 6HR MAX TEMP:  40;

CLAYTON        CLOUDY    38  26  62 SW5       30.45F WCI  34
6HR MIN TEMP:  37; 6HR MAX TEMP:  44;


$$
NMZ532>537-300700-
EASTCENTRAL PLAINS

CITY           SKY/WX    TMP DP  RH WIND       PRES   REMARKS
TUCUMCARI      MOCLDY    38  31  76 S5        30.47F WCI  34
6HR MIN TEMP:  38; 6HR MAX TEMP:  46;

CANNON AFB     CLOUDY    38  28  67 NE2       30.49S
6HR MIN TEMP:  35; 6HR MAX TEMP:  45;

CLOVIS AIRPORT MOCLDY    36  28  75 CALM      30.49S

$$
NMZ028-029-538-300700-
SOUTHEAST PLAINS

CITY           SKY/WX    TMP DP  RH WIND       PRES   REMARKS
ROSWELL        CLOUDY    46  28  49 E5        30.48S
6HR MIN TEMP:  46; 6HR MAX TEMP:  54;

ARTESIA        CLOUDY    48  28  46 SE12G20   30.49S
CARLSBAD       CLOUDY    49  29  46 SE8       30.47F
6HR MIN TEMP:  49; 6HR MAX TEMP:  55; 6HR PCP: TRACE;

HOBBS          CLOUDY    45  27  49 E5        30.49F


$$



USA.gov is the U.S. government's official web portal to all federal, state and local government web resources and services.